Location: Alafon
(8.4500°N, 4.2333°E)
Time: 16:56:52
(UTC+00:00)

A-11 Canister half - Pass Details

Date: 11 August 2021
Orbit: 1515 x 1685 km, 47.2° (Epoch: 19 September)

Event Time Altitude Azimuth Distance (km) Brightness Sun altitude
Rises 12:51:30 0° 250° (WSW) 4,659 11.7 73.2°
Reaches altitude 10° 12:55:07 10° 262° (W) 3,688 11.4 72.4°
Maximum altitude 13:02:41 28° 317° (NW) 2,594 11.0 70.6°
Drops below altitude 10° 13:10:29 10° 12° (NNE) 3,777 11.2 68.8°
Sets 13:14:17 0° 24° (NNE) 4,790 11.6 67.9°
